Temp
69 68 68 68 68 69 72 74 74 75 75 74 74 74 75 75 75 74 74 73 71 70 68 69 69 69 74 71 72 73 73 73 73 73 73 73 73 73 73 73 72 72 72 71 70 68 71 72 72 72 73 73 73 69 67 68 68 69 68 70 70 69
68 68 68 68 68 69 71 71 68 70 71 73 74 74 72 71 73 69 72 70 69 71 67 67 68 71 70 71 71 73 73 73 73 73 73 73 73 73 73 72 72 72 71 71 68 65 64 69 72 72 73 73 69 67 67 68 68 69 69 69 70 71
69 69 69 69 69 69 69 68 67 68 70 73 73 72 70 70 67 67 67 67 69 67 67 68 69 69 70 72 71 73 73 73 73 73 72 73 73 73 73 72 72 72 70 68 66 64 63 63 66 71 73 70 66 67 67 67 68 68 68 69 69 72
70 69 69 69 70 70 70 70 69 69 68 68 68 68 67 67 67 66 66 66 66 68 67 66 70 73 72 68 67 68 72 73 73 72 73 69 69 70 71 70 69 69 68 67 66 65 64 64 65 64 65 66 67 67 67 67 68 68 68 70 69 72
70 70 69 69 70 69 70 70 69 69 69 67 67 67 67 66 65 66 66 66 65 69 67 66 65 66 67 67 66 66 67 67 66 66 70 67 65 66 67 66 66 67 67 67 66 65 66 66 66 66 66 67 67 67 67 68 68 68 68 69 70 72
69 69 69 69 69 70 70 69 68 69 69 68 68 67 66 65 65 65 65 66 68 67 66 65 65 66 66 66 66 66 66 66 65 67 68 67 65 65 65 65 66 67 66 66 66 66 66 67 66 67 67 67 67 67 67 67 68 68 68 68 70 71
68 69 69 70 70 69 69 69 68 68 68 68 68 67 66 65 65 65 65 67 67 66 65 64 64 65 66 66 66 66 66 65 66 65 66 66 66 65 64 65 65 66 65 66 66 67 66 66 67 69 67 68 67 68 67 67 67 68 68 68 69 71
68 69 69 70 69 69 69 68 68 70 69 69 69 67 65 66 67 66 66 66 68 66 66 65 65 65 65 66 67 67 66 65 65 65 65 65 65 65 64 64 65 64 65 65 65 67 67 68 67 68 69 68 68 68 67 67 67 67 67 68 68 70
68 68 68 69 69 69 68 68 68 68 67 71 67 66 65 66 66 66 67 67 68 66 66 66 65 65 64 66 66 66 66 67 65 66 65 65 65 66 65 64 64 65 64 65 65 66 68 69 68 67 68 68 68 68 67 66 67 67 67 67 68 70
67 68 68 69 68 68 68 68 68 68 66 69 65 65 65 65 65 66 65 66 66 66 65 65 65 65 65 65 65 65 65 65 65 66 65 66 66 66 66 65 65 64 65 65 66 67 68 68 70 69 68 68 68 68 67 67 66 67 67 67 67 69
67 68 68 68 67 67 68 68 67 66 66 66 66 66 65 65 66 66 65 65 65 66 66 65 65 65 65 65 65 65 66 65 65 65 65 66 66 66 65 65 65 65 65 65 66 66 67 68 69 69 69 70 69 69 68 67 67 67 67 67 67 68
67 68 68 67 67 67 67 67 66 66 66 65 66 65 65 65 67 66 66 65 64 64 66 65 64 65 66 66 66 66 66 65 66 66 66 66 66 66 65 66 66 66 66 66 65 66 67 67 67 68 69 70 69 68 68 67 66 66 67 67 67 67
67 67 66 66 66 66 66 66 66 66 66 67 66 65 64 65 65 65 65 65 64 65 66 65 64 64 66 66 66 66 66 66 66 66 66 67 67 66 66 65 65 66 66 66 66 66 67 66 66 67 68 69 69 68 68 67 66 66 66 67 67 67
67 66 66 66 66 65 65 66 66 65 67 65 65 65 65 64 65 65 65 65 65 65 65 64 64 64 64 65 65 65 66 67 67 67 67 66 65 66 66 65 65 65 66 66 66 66 66 66 66 66 65 66 67 67 67 67 66 66 65 66 66 67
67 66 67 65 66 65 65 66 65 65 65 64 65 64 64 64 64 64 65 65 65 66 66 65 65 64 64 64 65 65 65 66 67 67 66 66 66 66 65 65 65 65 65 65 64 65 66 65 64 65 65 65 65 66 66 65 65 65 65 65 65 66
66 66 65 66 65 66 66 66 66 67 65 64 65 64 64 65 65 64 65 66 66 66 67 67 67 66 65 65 65 65 66 66 66 66 66 66 66 66 66 65 65 65 64 64 64 64 64 64 64 64 64 64 64 65 64 64 64 65 65 64 64 64
66 66 66 67 66 65 65 66 66 67 66 66 65 65 66 65 65 65 64 64 64 65 66 66 67 66 66 66 66 66 66 67 67 66 66 66 66 66 66 66 65 65 65 64 64 64 63 63 63 64 64 64 64 64 64 64 64 64 65 64 64 65
66 66 66 67 67 66 66 66 66 67 68 66 67 65 65 64 65 65 65 65 65 65 65 65 65 66 66 67 67 66 66 67 67 66 66 66 66 66 66 65 65 65 64 64 63 63 63 63 63 63 64 64 64 63 64 64 64 65 64 63 63 65
68 66 65 66 67 67 66 66 65 66 65 64 63 63 64 64 65 65 65 66 66 66 66 65 65 65 65 66 66 66 66 66 66 66 65 65 66 66 66 65 65 64 65 64 63 63 63 63 63 63 63 63 63 64 64 64 64 64 64 64 64 65
68 66 65 66 66 66 65 65 65 64 63 64 63 64 64 64 65 65 66 66 66 65 65 66 65 66 66 66 66 66 66 66 66 65 65 65 65 65 65 66 65 64 64 64 64 64 63 63 63 62 63 63 63 63 64 64 64 64 64 64 64 64
67 67 66 65 65 65 65 63 63 63 63 63 63 64 64 64 64 65 66 66 66 66 65 66 67 67 66 67 66 66 66 65 65 65 65 65 65 66 66 66 66 66 64 63 63 64 63 63 61 60 61 62 62 63 63 64 63 64 64 64 64 63
67 67 67 66 65 64 63 64 63 62 62 63 63 63 64 63 64 65 65 66 66 66 65 65 66 66 66 66 65 65 65 65 65 65 65 66 65 65 65 65 65 64 65 64 63 63 64 62 60 59 58 58 60 62 63 63 63 63 64 64 64 64
66 66 66 66 65 64 63 63 62 61 62 61 62 63 63 63 65 64 64 64 65 64 64 64 63 65 64 64 64 64 64 65 65 65 65 64 65 64 65 65 65 64 63 64 64 65 64 63 61 61 61 59 57 56 60 61 63 63 64 64 64 63
64 64 65 66 66 64 64 63 63 62 62 62 63 64 62 62 62 62 63 63 63 63 63 63 63 63 64 63 63 63 63 63 64 65 65 64 64 65 65 65 65 64 64 62 63 63 65 64 63 60 56 57 57 57 55 57 59 62 64 64 64 64
64 64 64 65 64 63 64 62 61 62 61 62 63 60 62 63 63 64 65 63 63 64 63 63 63 62 63 63 62 62 62 63 63 64 65 65 65 65 66 66 66 65 64 63 62 63 64 64 63 64 62 57 55 54 56 58 58 59 62 62 63 64
63 63 63 63 64 64 64 62 61 62 61 58 60 60 62 61 62 62 62 62 63 63 63 63 63 63 64 64 63 63 63 63 63 63 63 64 65 65 65 64 65 65 64 64 63 62 62 64 64 63 63 63 62 58 57 58 58 56 61 63 63 64
63 64 64 64 63 64 62 63 63 63 62 61 60 60 60 61 61 61 61 62 62 62 63 63 63 63 63 63 63 63 63 63 63 63 64 63 63 64 64 65 65 65 65 65 63 61 61 62 63 62 63 63 63 62 60 59 56 58 56 60 62 62
64 64 63 64 64 64 63 62 62 62 61 60 60 60 60 61 60 61 61 61 62 62 62 62 62 62 63 63 63 63 63 63 63 64 64 64 63 64 64 65 65 65 65 64 64 62 61 62 61 61 62 61 62 63 61 61 61 60 58 56 57 62
62 63 63 64 64 64 64 62 61 61 60 60 61 60 60 61 60 60 61 61 61 61 62 62 62 62 62 63 63 63 63 63 63 63 64 64 64 64 64 64 64 64 64 64 64 63 62 62 62 61 62 61 62 61 61 60 61 61 58 57 57 58
61 62 62 62 63 62 62 62 61 60 59 59 60 60 60 60 60 59 60 60 60 61 61 61 62 62 63 63 63 63 63 63 62 63 63 63 64 64 64 64 64 64 64 63 63 63 62 62 62 62 62 62 60 60 60 59 59 59 59 59 57 57
60 61 62 61 62 61 61 61 60 60 59 59 59 59 59 59 59 60 59 60 60 60 61 61 62 63 63 63 63 64 63 63 63 63 63 63 63 63 63 63 64 64 64 63 63 63 62 63 62 62 62 61 61 61 60 59 59 60 59 58 57 57
60 60 61 61 61 61 61 60 59 59 59 58 58 59 58 58 59 59 60 60 61 61 61 61 62 62 63 63 63 63 63 63 63 63 63 63 64 64 64 64 63 63 63 63 63 62 62 62 62 62 62 62 62 62 61 60 61 61 60 59 59 58
59 59 60 60 60 60 59 59 59 58 58 59 58 58 58 59 60 60 60 60 60 60 60 60 61 61 62 63 63 63 63 63 63 63 64 63 63 64 63 63 63 63 63 62 62 62 61 62 62 61 61 62 62 62 61 62 62 60 61 61 60 58
58 59 59 59 59 59 58 58 58 58 58 58 58 58 58 60 60 61 61 60 60 60 60 61 61 62 62 63 63 63 63 63 64 64 64 64 64 64 63 63 63 62 62 63 62 62 62 62 62 62 63 61 62 62 62 62 62 62 60 60 58 58
58 58 59 58 59 59 59 58 58 58 58 58 58 59 60 61 61 61 61 61 61 61 61 61 62 62 63 63 63 63 63 63 63 63 63 63 63 63 63 63 63 63 63 63 62 62 62 62 62 62 62 62 62 62 62 62 62 62 62 61 61 60
58 58 58 58 58 58 58 58 58 58 58 59 60 60 61 61 62 62 61 61 61 61 61 62 62 62 62 62 61 61 62 61 62 61 62 62 62 63 63 62 62 63 62 64 63 62 62 63 62 63 62 63 62 62 63 63 63 62 62 62 62 61
58 58 58 57 57 57 57 58 58 60 60 60 61 61 61 61 61 61 61 61 60 60 61 62 62 62 61 61 60 60 59 59 60 60 60 61 61 62 62 62 62 62 62 62 62 62 62 62 62 62 62 62 62 62 63 63 63 63 63 62 62 62
MSLP
1015.62 1015.74 1015.86 1016.02 1016.18 1016.26 1016.30 1016.42 1016.54 1016.66 1016.74 1016.86 1016.98 1017.06 1017.22 1017.34 1017.46 1017.58 1017.70 1017.78 1017.86 1017.98 1018.06 1018.10 1018.18 1018.22 1018.18 1018.26 1018.26 1018.26 1018.26 1018.26 1018.26 1018.30 1018.30 1018.26 1018.30 1018.38 1018.42 1018.46 1018.50 1018.58 1018.62 1018.70 1018.82 1018.90 1018.86 1018.82 1018.86 1018.90 1018.90 1018.86 1018.90 1019.10 1019.22 1019.30 1019.38 1019.46 1019.54 1019.54 1019.58 1019.58
1015.78 1015.94 1016.06 1016.22 1016.30 1016.38 1016.46 1016.62 1016.74 1016.78 1016.86 1016.94 1017.06 1017.18 1017.34 1017.46 1017.54 1017.66 1017.74 1017.90 1017.98 1018.06 1018.18 1018.26 1018.30 1018.30 1018.38 1018.38 1018.34 1018.38 1018.38 1018.34 1018.38 1018.38 1018.38 1018.38 1018.38 1018.42 1018.42 1018.46 1018.50 1018.58 1018.62 1018.74 1018.94 1019.02 1019.02 1018.90 1018.86 1018.94 1019.02 1019.02 1019.10 1019.22 1019.26 1019.34 1019.42 1019.46 1019.54 1019.62 1019.62 1019.58
1015.94 1016.06 1016.22 1016.38 1016.46 1016.54 1016.70 1016.82 1016.90 1016.94 1016.98 1017.06 1017.18 1017.30 1017.46 1017.58 1017.70 1017.78 1017.90 1017.98 1018.06 1018.18 1018.26 1018.30 1018.42 1018.42 1018.42 1018.42 1018.46 1018.46 1018.46 1018.46 1018.46 1018.46 1018.50 1018.50 1018.50 1018.54 1018.54 1018.58 1018.58 1018.62 1018.70 1018.82 1018.98 1019.10 1019.10 1019.06 1018.98 1018.98 1019.02 1019.18 1019.30 1019.34 1019.34 1019.38 1019.46 1019.50 1019.54 1019.54 1019.58 1019.54
1016.10 1016.22 1016.38 1016.54 1016.62 1016.70 1016.86 1016.98 1017.06 1017.10 1017.18 1017.26 1017.38 1017.46 1017.58 1017.66 1017.78 1017.86 1017.94 1018.06 1018.18 1018.22 1018.34 1018.46 1018.46 1018.38 1018.42 1018.50 1018.58 1018.58 1018.54 1018.50 1018.50 1018.54 1018.54 1018.62 1018.66 1018.70 1018.70 1018.74 1018.78 1018.78 1018.86 1018.90 1019.02 1019.14 1019.10 1019.06 1019.06 1019.10 1019.18 1019.26 1019.34 1019.38 1019.42 1019.46 1019.50 1019.54 1019.58 1019.54 1019.54 1019.46
1016.18 1016.34 1016.50 1016.62 1016.74 1016.86 1016.98 1017.06 1017.14 1017.22 1017.34 1017.46 1017.54 1017.66 1017.74 1017.82 1017.86 1017.98 1018.06 1018.14 1018.26 1018.34 1018.46 1018.54 1018.62 1018.62 1018.66 1018.66 1018.66 1018.70 1018.66 1018.66 1018.66 1018.70 1018.70 1018.82 1018.86 1018.86 1018.86 1018.90 1018.86 1018.86 1018.94 1018.98 1019.06 1019.22 1019.14 1019.10 1019.02 1019.10 1019.18 1019.26 1019.30 1019.34 1019.38 1019.42 1019.50 1019.58 1019.58 1019.54 1019.50 1019.42
1016.30 1016.42 1016.58 1016.66 1016.74 1016.86 1016.98 1017.18 1017.30 1017.38 1017.46 1017.58 1017.66 1017.78 1017.86 1017.98 1018.02 1018.10 1018.18 1018.26 1018.34 1018.50 1018.58 1018.62 1018.62 1018.66 1018.62 1018.62 1018.70 1018.70 1018.66 1018.66 1018.74 1018.78 1018.74 1018.82 1018.86 1018.86 1018.86 1018.86 1018.86 1018.90 1018.94 1018.94 1019.02 1019.14 1019.18 1019.10 1019.06 1019.06 1019.14 1019.22 1019.26 1019.26 1019.26 1019.34 1019.42 1019.50 1019.54 1019.58 1019.54 1019.42
1016.38 1016.46 1016.54 1016.58 1016.66 1016.86 1017.02 1017.10 1017.26 1017.38 1017.54 1017.70 1017.70 1017.86 1017.98 1018.06 1018.14 1018.18 1018.26 1018.30 1018.46 1018.58 1018.66 1018.66 1018.58 1018.54 1018.54 1018.54 1018.58 1018.62 1018.66 1018.70 1018.78 1018.78 1018.78 1018.86 1018.86 1018.78 1018.78 1018.78 1018.78 1018.82 1018.82 1018.86 1018.90 1018.98 1019.14 1019.10 1019.02 1019.02 1019.06 1019.14 1019.18 1019.18 1019.26 1019.26 1019.30 1019.38 1019.42 1019.46 1019.50 1019.46
1016.34 1016.46 1016.54 1016.62 1016.74 1016.90 1017.02 1017.18 1017.34 1017.34 1017.50 1017.66 1017.78 1017.98 1018.06 1018.10 1018.14 1018.18 1018.22 1018.30 1018.38 1018.54 1018.66 1018.70 1018.66 1018.58 1018.50 1018.50 1018.54 1018.58 1018.66 1018.74 1018.78 1018.82 1018.86 1018.86 1018.90 1018.82 1018.74 1018.70 1018.70 1018.70 1018.74 1018.74 1018.78 1018.78 1018.90 1018.98 1018.98 1018.98 1019.02 1019.06 1019.10 1019.14 1019.18 1019.18 1019.18 1019.22 1019.26 1019.34 1019.38 1019.38
1016.50 1016.58 1016.66 1016.82 1017.02 1017.02 1017.14 1017.34 1017.46 1017.54 1017.70 1017.70 1017.90 1018.02 1018.06 1018.10 1018.18 1018.18 1018.22 1018.30 1018.38 1018.62 1018.66 1018.70 1018.70 1018.62 1018.58 1018.62 1018.66 1018.70 1018.70 1018.70 1018.78 1018.82 1018.86 1018.86 1018.86 1018.82 1018.74 1018.66 1018.66 1018.66 1018.70 1018.74 1018.74 1018.70 1018.62 1018.70 1018.86 1018.94 1018.98 1018.98 1018.98 1019.06 1019.10 1019.14 1019.14 1019.14 1019.18 1019.22 1019.26 1019.26
1016.62 1016.70 1016.82 1016.98 1017.14 1017.26 1017.30 1017.50 1017.58 1017.66 1017.82 1017.82 1017.98 1018.02 1018.02 1018.14 1018.18 1018.18 1018.26 1018.30 1018.38 1018.54 1018.62 1018.66 1018.66 1018.58 1018.66 1018.74 1018.74 1018.74 1018.78 1018.74 1018.78 1018.78 1018.82 1018.86 1018.78 1018.82 1018.78 1018.66 1018.66 1018.74 1018.74 1018.70 1018.70 1018.62 1018.58 1018.54 1018.54 1018.74 1018.86 1018.86 1018.86 1018.82 1018.86 1018.90 1018.98 1019.02 1019.02 1019.06 1019.14 1019.14
1016.62 1016.70 1016.86 1017.06 1017.22 1017.34 1017.42 1017.58 1017.70 1017.78 1017.86 1017.94 1017.98 1018.02 1018.02 1018.06 1018.10 1018.18 1018.26 1018.34 1018.46 1018.46 1018.54 1018.62 1018.62 1018.70 1018.74 1018.78 1018.78 1018.78 1018.78 1018.78 1018.78 1018.74 1018.78 1018.86 1018.90 1018.98 1018.90 1018.82 1018.86 1018.90 1018.90 1018.86 1018.74 1018.58 1018.58 1018.58 1018.50 1018.42 1018.54 1018.70 1018.70 1018.66 1018.66 1018.70 1018.78 1018.82 1018.90 1018.86 1018.94 1019.02
1016.66 1016.70 1016.86 1017.10 1017.22 1017.38 1017.46 1017.58 1017.74 1017.82 1017.94 1017.94 1017.94 1018.02 1018.02 1018.02 1018.10 1018.22 1018.30 1018.42 1018.42 1018.46 1018.50 1018.58 1018.66 1018.74 1018.78 1018.74 1018.74 1018.74 1018.74 1018.78 1018.74 1018.70 1018.70 1018.74 1018.78 1018.78 1018.66 1018.58 1018.82 1018.86 1018.82 1018.78 1018.70 1018.58 1018.50 1018.54 1018.46 1018.38 1018.30 1018.42 1018.42 1018.46 1018.46 1018.54 1018.66 1018.70 1018.78 1018.78 1018.78 1018.82
1016.62 1016.70 1016.86 1017.02 1017.10 1017.18 1017.38 1017.58 1017.74 1017.86 1017.90 1017.90 1017.94 1017.98 1018.02 1018.06 1018.18 1018.34 1018.38 1018.42 1018.42 1018.46 1018.50 1018.58 1018.62 1018.62 1018.62 1018.66 1018.66 1018.66 1018.66 1018.66 1018.66 1018.74 1018.74 1018.70 1018.70 1018.70 1018.54 1018.50 1018.66 1018.66 1018.66 1018.62 1018.58 1018.50 1018.54 1018.58 1018.54 1018.38 1018.26 1018.22 1018.22 1018.30 1018.30 1018.38 1018.50 1018.62 1018.74 1018.78 1018.70 1018.66
1016.58 1016.70 1016.78 1016.82 1016.98 1017.22 1017.42 1017.62 1017.70 1017.82 1017.82 1017.90 1017.90 1017.90 1017.94 1018.06 1018.18 1018.30 1018.30 1018.34 1018.38 1018.42 1018.42 1018.42 1018.50 1018.58 1018.62 1018.74 1018.74 1018.74 1018.70 1018.58 1018.58 1018.66 1018.74 1018.78 1018.82 1018.70 1018.66 1018.58 1018.66 1018.74 1018.66 1018.66 1018.62 1018.50 1018.54 1018.58 1018.46 1018.38 1018.38 1018.34 1018.26 1018.26 1018.30 1018.42 1018.54 1018.58 1018.58 1018.58 1018.70 1018.82
1016.58 1016.74 1016.74 1016.90 1017.06 1017.26 1017.42 1017.58 1017.70 1017.82 1017.82 1017.82 1017.82 1017.86 1017.98 1018.14 1018.18 1018.18 1018.22 1018.30 1018.34 1018.34 1018.38 1018.46 1018.54 1018.66 1018.66 1018.70 1018.74 1018.70 1018.66 1018.62 1018.58 1018.62 1018.70 1018.70 1018.74 1018.70 1018.74 1018.70 1018.62 1018.78 1018.66 1018.66 1018.62 1018.58 1018.54 1018.46 1018.46 1018.50 1018.42 1018.34 1018.34 1018.26 1018.18 1018.30 1018.38 1018.42 1018.46 1018.50 1018.46 1018.42
1016.70 1016.86 1016.94 1017.02 1017.14 1017.26 1017.38 1017.54 1017.66 1017.70 1017.78 1017.78 1017.78 1017.90 1018.06 1018.18 1018.18 1018.14 1018.14 1018.18 1018.22 1018.26 1018.38 1018.50 1018.54 1018.58 1018.62 1018.58 1018.62 1018.66 1018.58 1018.58 1018.66 1018.70 1018.74 1018.70 1018.70 1018.70 1018.66 1018.66 1018.58 1018.62 1018.70 1018.62 1018.58 1018.50 1018.42 1018.50 1018.58 1018.50 1018.22 1018.22 1018.38 1018.34 1018.30 1018.26 1018.30 1018.30 1018.34 1018.38 1018.42 1018.42
1016.82 1016.98 1017.06 1017.14 1017.22 1017.34 1017.42 1017.58 1017.66 1017.70 1017.74 1017.74 1017.86 1017.98 1018.02 1018.10 1018.10 1018.06 1018.06 1018.10 1018.14 1018.26 1018.42 1018.46 1018.42 1018.42 1018.50 1018.46 1018.50 1018.54 1018.54 1018.58 1018.62 1018.74 1018.78 1018.74 1018.70 1018.62 1018.62 1018.58 1018.50 1018.46 1018.54 1018.54 1018.50 1018.42 1018.34 1018.42 1018.66 1018.34 1017.98 1018.02 1018.10 1018.14 1018.18 1018.18 1018.18 1018.18 1018.30 1018.42 1018.30 1018.38
1016.82 1016.90 1017.06 1017.18 1017.26 1017.34 1017.42 1017.50 1017.62 1017.62 1017.66 1017.78 1017.82 1017.98 1018.10 1018.14 1018.10 1018.02 1017.98 1018.02 1018.06 1018.18 1018.30 1018.38 1018.34 1018.30 1018.34 1018.30 1018.34 1018.42 1018.46 1018.50 1018.54 1018.62 1018.66 1018.70 1018.70 1018.58 1018.54 1018.50 1018.54 1018.42 1018.42 1018.46 1018.46 1018.38 1018.30 1018.38 1018.46 1018.22 1018.10 1018.06 1017.98 1017.98 1017.94 1017.98 1018.06 1018.10 1018.22 1018.42 1018.46 1018.30
1016.74 1016.94 1017.06 1017.14 1017.22 1017.30 1017.38 1017.50 1017.58 1017.70 1017.78 1017.82 1017.90 1017.98 1018.06 1018.06 1018.02 1018.02 1017.98 1017.94 1017.98 1018.10 1018.18 1018.26 1018.22 1018.22 1018.26 1018.26 1018.34 1018.38 1018.46 1018.46 1018.46 1018.50 1018.54 1018.58 1018.54 1018.50 1018.46 1018.38 1018.42 1018.34 1018.22 1018.22 1018.22 1018.18 1018.18 1018.22 1018.26 1018.22 1018.14 1017.98 1017.94 1017.86 1017.74 1017.74 1017.74 1017.82 1017.86 1017.82 1018.02 1018.14
1016.66 1016.78 1016.94 1017.06 1017.18 1017.38 1017.50 1017.66 1017.82 1017.86 1017.90 1017.86 1017.90 1017.94 1017.90 1017.90 1017.86 1017.94 1017.90 1017.90 1017.90 1017.98 1018.06 1018.10 1018.10 1018.06 1018.10 1018.18 1018.26 1018.34 1018.38 1018.34 1018.38 1018.42 1018.46 1018.46 1018.42 1018.38 1018.38 1018.34 1018.26 1018.26 1018.22 1018.18 1018.06 1018.10 1018.10 1018.22 1018.18 1018.02 1017.90 1017.82 1017.82 1017.78 1017.82 1017.70 1017.62 1017.58 1017.54 1017.58 1017.82 1018.02
1016.54 1016.66 1016.90 1017.10 1017.26 1017.42 1017.62 1017.82 1017.90 1017.98 1017.94 1017.82 1017.82 1017.82 1017.74 1017.74 1017.82 1017.78 1017.78 1017.82 1017.82 1017.82 1017.94 1017.98 1017.98 1018.02 1018.06 1018.10 1018.14 1018.18 1018.22 1018.26 1018.26 1018.26 1018.30 1018.26 1018.18 1018.14 1018.06 1018.06 1018.02 1017.98 1018.02 1018.02 1017.94 1017.86 1017.86 1017.98 1018.26 1018.26 1018.02 1017.86 1017.78 1017.66 1017.62 1017.58 1017.54 1017.46 1017.42 1017.42 1017.66 1017.82
1016.50 1016.70 1016.78 1016.86 1017.02 1017.18 1017.30 1017.38 1017.58 1017.66 1017.70 1017.66 1017.70 1017.78 1017.78 1017.78 1017.70 1017.66 1017.70 1017.74 1017.74 1017.78 1017.86 1017.94 1017.98 1017.98 1018.02 1018.10 1018.14 1018.18 1018.22 1018.22 1018.18 1018.18 1018.10 1017.98 1017.94 1017.90 1017.90 1017.90 1017.86 1017.90 1017.70 1017.78 1017.74 1017.62 1017.66 1017.94 1018.18 1018.26 1018.26 1018.14 1017.86 1017.66 1017.42 1017.38 1017.42 1017.38 1017.30 1017.26 1017.30 1017.46
1016.54 1016.70 1016.78 1016.82 1016.94 1017.14 1017.18 1017.22 1017.26 1017.34 1017.42 1017.54 1017.70 1017.82 1017.78 1017.70 1017.66 1017.66 1017.70 1017.74 1017.82 1017.90 1017.94 1017.98 1017.98 1017.98 1018.02 1018.06 1018.10 1018.14 1018.18 1018.14 1018.10 1018.06 1018.02 1017.94 1017.86 1017.82 1017.74 1017.70 1017.70 1017.78 1017.70 1017.42 1017.34 1017.14 1017.30 1017.50 1017.90 1017.74 1017.70 1017.94 1018.02 1018.14 1017.54 1017.42 1017.14 1017.10 1017.10 1017.06 1017.06 1017.18
1016.62 1016.66 1016.78 1016.74 1016.74 1016.82 1016.94 1017.10 1017.26 1017.34 1017.54 1017.66 1017.74 1017.62 1017.70 1017.74 1017.78 1017.82 1017.86 1017.82 1017.86 1017.86 1017.90 1017.94 1017.90 1017.94 1017.94 1018.02 1018.10 1018.18 1018.14 1018.14 1018.06 1017.94 1017.94 1017.90 1017.82 1017.70 1017.58 1017.50 1017.46 1017.42 1017.42 1017.50 1017.30 1017.14 1016.86 1016.98 1017.18 1017.78 1018.26 1018.02 1017.74 1017.66 1017.78 1017.50 1017.34 1016.74 1016.66 1016.78 1016.90 1016.86
1016.54 1016.54 1016.70 1016.74 1016.86 1016.98 1017.18 1017.34 1017.38 1017.50 1017.58 1017.74 1017.74 1017.82 1017.86 1017.90 1017.90 1017.86 1017.82 1017.82 1017.82 1017.78 1017.78 1017.82 1017.86 1017.94 1017.98 1018.02 1018.02 1018.02 1018.06 1017.98 1017.94 1017.86 1017.78 1017.74 1017.66 1017.54 1017.38 1017.30 1017.18 1017.18 1017.18 1017.18 1017.14 1016.94 1016.74 1016.62 1016.70 1016.66 1017.14 1017.78 1017.90 1017.86 1017.34 1016.90 1017.18 1016.86 1016.54 1016.82 1016.62 1016.62
1016.70 1016.78 1016.86 1016.94 1016.94 1017.02 1017.22 1017.42 1017.70 1017.94 1018.18 1018.26 1018.26 1018.14 1018.30 1018.34 1018.10 1018.02 1017.98 1017.86 1017.74 1017.74 1017.78 1017.78 1017.86 1017.90 1017.94 1017.94 1017.94 1017.86 1017.82 1017.82 1017.74 1017.70 1017.66 1017.58 1017.46 1017.34 1017.22 1017.18 1017.06 1016.98 1016.86 1016.70 1016.70 1016.74 1016.66 1016.34 1016.26 1016.30 1016.26 1016.26 1016.38 1016.86 1017.10 1016.90 1017.06 1017.10 1016.46 1016.26 1016.34 1016.42
1016.78 1016.82 1016.86 1016.90 1016.90 1016.98 1017.34 1017.46 1017.66 1017.90 1018.10 1018.22 1018.30 1018.34 1018.26 1018.14 1018.06 1017.94 1017.90 1017.86 1017.82 1017.74 1017.82 1017.90 1017.90 1017.90 1017.82 1017.74 1017.70 1017.66 1017.62 1017.62 1017.62 1017.58 1017.46 1017.42 1017.34 1017.22 1017.06 1016.94 1016.78 1016.74 1016.62 1016.46 1016.42 1016.46 1016.46 1016.26 1016.02 1015.94 1015.86 1015.82 1015.82 1015.98 1016.26 1016.70 1017.06 1016.78 1016.90 1016.38 1016.26 1016.22
1016.90 1017.02 1017.10 1017.10 1017.02 1016.90 1017.14 1017.46 1017.66 1017.94 1018.22 1018.34 1018.30 1018.30 1018.14 1018.02 1018.02 1017.98 1017.86 1017.90 1017.82 1017.86 1017.82 1017.82 1017.78 1017.74 1017.66 1017.62 1017.58 1017.58 1017.62 1017.62 1017.62 1017.50 1017.38 1017.26 1017.14 1016.98 1016.86 1016.66 1016.54 1016.42 1016.30 1016.22 1016.18 1016.22 1016.10 1015.86 1015.94 1015.66 1015.50 1015.70 1015.66 1015.58 1015.82 1016.10 1016.02 1016.38 1016.42 1016.66 1016.42 1016.10
1017.18 1017.22 1017.30 1017.14 1017.10 1017.18 1017.26 1017.50 1017.74 1017.90 1018.06 1018.22 1018.10 1018.14 1018.10 1018.06 1018.02 1018.02 1017.94 1018.02 1017.94 1017.90 1017.82 1017.78 1017.82 1017.86 1017.82 1017.74 1017.70 1017.74 1017.66 1017.62 1017.50 1017.34 1017.18 1017.06 1016.94 1016.82 1016.70 1016.54 1016.34 1016.18 1016.10 1015.90 1015.82 1015.74 1015.74 1015.62 1015.54 1015.46 1015.14 1014.98 1015.06 1015.38 1015.46 1015.66 1015.86 1016.18 1016.50 1016.58 1016.30 1016.26
1017.46 1017.46 1017.38 1017.26 1017.18 1017.26 1017.42 1017.66 1017.82 1017.94 1017.94 1018.06 1018.06 1017.94 1017.98 1018.10 1018.18 1018.22 1018.18 1018.26 1018.22 1018.14 1018.14 1018.02 1018.02 1018.02 1017.98 1017.90 1017.82 1017.74 1017.66 1017.46 1017.34 1017.22 1017.14 1017.10 1016.94 1016.74 1016.54 1016.30 1016.10 1015.90 1015.70 1015.62 1015.46 1015.42 1015.42 1015.34 1015.22 1015.02 1015.02 1014.82 1014.94 1014.94 1015.22 1015.54 1015.62 1015.78 1015.94 1016.02 1015.94 1015.78
1017.62 1017.50 1017.38 1017.38 1017.26 1017.46 1017.66 1017.82 1017.98 1018.02 1018.02 1018.10 1018.18 1018.22 1018.18 1018.34 1018.42 1018.34 1018.46 1018.50 1018.50 1018.50 1018.46 1018.42 1018.30 1018.18 1018.06 1017.98 1017.82 1017.70 1017.50 1017.38 1017.26 1017.18 1017.02 1016.86 1016.70 1016.46 1016.22 1016.02 1015.74 1015.58 1015.46 1015.38 1015.22 1015.10 1015.10 1015.06 1014.94 1014.86 1014.74 1014.82 1014.78 1014.62 1014.54 1014.78 1014.78 1015.06 1015.26 1015.42 1015.58 1015.42
1017.70 1017.58 1017.54 1017.54 1017.46 1017.66 1017.86 1018.06 1018.14 1018.18 1018.18 1018.34 1018.46 1018.54 1018.66 1018.74 1018.70 1018.62 1018.70 1018.70 1018.70 1018.66 1018.66 1018.62 1018.50 1018.34 1018.14 1017.94 1017.78 1017.58 1017.42 1017.34 1017.26 1017.10 1016.94 1016.70 1016.42 1016.14 1015.86 1015.70 1015.54 1015.42 1015.30 1015.18 1015.02 1014.90 1014.86 1014.82 1014.74 1014.66 1014.54 1014.50 1014.50 1014.50 1014.46 1014.46 1014.46 1014.66 1014.70 1014.62 1014.86 1014.82
1017.74 1017.66 1017.78 1017.78 1017.82 1018.02 1018.14 1018.30 1018.38 1018.38 1018.50 1018.58 1018.58 1018.70 1018.82 1018.86 1018.82 1018.86 1018.94 1018.98 1018.98 1019.02 1018.90 1018.78 1018.62 1018.46 1018.22 1018.06 1017.82 1017.62 1017.50 1017.42 1017.26 1017.02 1016.78 1016.50 1016.22 1015.90 1015.70 1015.50 1015.42 1015.30 1015.22 1015.06 1014.90 1014.82 1014.74 1014.62 1014.54 1014.50 1014.42 1014.26 1014.22 1014.22 1014.14 1014.02 1014.18 1014.42 1014.38 1014.14 1014.26 1014.42
1017.86 1017.98 1018.06 1018.02 1018.06 1018.14 1018.30 1018.46 1018.50 1018.54 1018.66 1018.66 1018.74 1018.86 1018.94 1018.98 1019.02 1019.06 1019.14 1019.22 1019.22 1019.14 1019.06 1018.94 1018.78 1018.58 1018.38 1018.14 1017.98 1017.78 1017.62 1017.46 1017.22 1016.94 1016.70 1016.42 1016.14 1015.90 1015.66 1015.50 1015.34 1015.22 1015.10 1014.90 1014.74 1014.62 1014.58 1014.54 1014.42 1014.22 1014.10 1014.10 1013.98 1013.90 1013.82 1013.78 1013.82 1013.90 1013.98 1014.10 1014.10 1014.14
1018.18 1018.26 1018.14 1018.14 1018.10 1018.26 1018.50 1018.58 1018.62 1018.70 1018.78 1018.82 1018.90 1018.94 1019.02 1019.06 1019.10 1019.18 1019.22 1019.26 1019.30 1019.22 1019.14 1018.98 1018.86 1018.66 1018.46 1018.30 1018.14 1017.90 1017.66 1017.38 1017.18 1016.94 1016.66 1016.38 1016.14 1015.90 1015.66 1015.46 1015.26 1015.06 1014.90 1014.70 1014.62 1014.50 1014.42 1014.26 1014.10 1013.94 1013.82 1013.74 1013.62 1013.50 1013.46 1013.38 1013.42 1013.42 1013.38 1013.46 1013.50 1013.58
1018.30 1018.30 1018.22 1018.26 1018.46 1018.66 1018.82 1018.82 1018.82 1018.86 1018.90 1018.90 1018.94 1019.02 1019.10 1019.14 1019.22 1019.26 1019.38 1019.42 1019.50 1019.38 1019.26 1019.10 1018.86 1018.74 1018.66 1018.54 1018.38 1018.14 1017.86 1017.62 1017.34 1017.06 1016.78 1016.50 1016.22 1015.98 1015.70 1015.46 1015.22 1015.02 1014.86 1014.58 1014.46 1014.34 1014.22 1014.02 1013.86 1013.70 1013.54 1013.34 1013.26 1013.14 1013.02 1012.94 1012.90 1012.94 1012.98 1013.02 1013.02 1013.06
1018.42 1018.38 1018.46 1018.66 1018.86 1018.94 1018.90 1018.86 1018.98 1019.02 1019.02 1019.02 1019.14 1019.26 1019.38 1019.50 1019.58 1019.54 1019.58 1019.62 1019.66 1019.54 1019.34 1019.18 1019.02 1018.98 1018.94 1018.78 1018.62 1018.34 1018.10 1017.78 1017.50 1017.22 1016.94 1016.66 1016.38 1016.10 1015.82 1015.58 1015.34 1015.06 1014.90 1014.66 1014.50 1014.34 1014.14 1014.02 1013.78 1013.54 1013.30 1013.14 1013.02 1012.82 1012.70 1012.58 1012.58 1012.62 1012.62 1012.62 1012.62 1012.62
Wind_Speed
5 5 5 5 4 4 6 10 9 10 9 9 10 9 8 8 7 7 7 6 6 4 4 4 3 2 4 2 4 3 5 4 4 3 2 3 3 4 5 5 6 6 7 8 9 8 7 6 6 4 8 9 9 5 4 4 4 3 3 2 3 2
5 6 6 5 4 3 3 6 3 3 3 6 8 7 5 3 4 3 6 5 3 3 3 2 2 3 2 0 1 1 2 3 2 2 1 2 3 4 4 4 5 6 7 8 9 4 3 4 5 4 6 8 5 4 4 4 4 4 3 2 3 4
6 6 7 5 4 3 5 4 3 3 3 5 5 5 3 4 3 4 4 4 3 2 2 2 0 1 1 2 0 2 1 0 1 1 1 1 2 4 4 5 6 6 7 6 4 3 2 2 4 3 5 5 4 3 4 4 4 4 3 3 3 6
6 6 6 5 4 4 4 4 3 3 3 4 4 4 4 3 3 3 3 2 2 2 1 0 2 4 5 3 2 3 4 4 3 2 3 3 5 5 7 6 7 7 4 3 2 3 2 2 3 3 3 4 4 4 4 4 4 4 3 4 4 8
5 5 6 5 4 5 5 4 3 3 3 3 4 3 3 3 2 3 2 2 1 1 1 1 1 2 2 2 1 1 2 2 2 2 3 2 2 2 3 3 3 3 3 2 2 2 2 2 1 2 4 4 4 5 4 4 3 3 3 3 4 8
6 6 5 5 4 6 6 4 4 3 4 2 3 3 3 2 2 2 2 2 2 2 2 1 1 1 1 1 2 2 2 1 1 1 1 2 2 1 2 2 2 2 2 2 2 0 2 3 3 2 4 4 5 5 5 5 4 4 4 4 4 9
7 7 6 5 5 4 4 4 3 3 4 2 3 4 3 2 1 2 1 1 2 0 1 1 2 3 1 1 3 3 2 1 2 2 1 1 3 2 2 2 1 2 2 2 3 2 2 3 3 3 3 4 5 4 5 5 4 4 4 5 4 9
6 6 6 6 5 4 4 4 3 6 4 4 4 3 2 2 2 2 2 2 2 2 1 1 1 2 4 2 3 3 2 2 2 2 1 1 3 3 4 3 3 3 2 2 3 3 1 3 4 4 3 4 4 4 4 5 5 5 5 5 5 7
6 6 5 5 4 3 4 4 3 3 4 5 3 3 2 2 2 2 2 2 2 2 1 1 2 2 1 2 2 3 3 4 2 3 1 3 3 4 5 4 4 4 3 3 3 4 3 2 3 4 4 4 4 4 4 4 5 5 5 5 5 7
6 5 5 6 3 4 3 4 3 3 2 2 2 2 2 2 2 2 3 2 2 2 2 2 2 1 1 2 2 2 2 3 4 2 2 4 3 4 5 5 4 4 4 4 3 3 3 4 3 2 4 4 5 5 5 6 6 5 5 5 5 5
6 7 5 5 4 4 4 4 3 2 2 2 2 3 2 2 2 2 2 1 1 1 1 1 2 2 2 2 2 2 3 3 3 3 2 3 3 3 4 4 4 5 5 5 4 3 3 4 4 5 2 3 4 4 5 4 4 5 5 5 5 5
5 6 6 5 5 5 5 4 3 3 3 3 3 3 3 3 2 1 1 1 1 1 1 2 1 2 2 3 4 3 3 3 4 3 1 2 2 2 5 5 3 3 4 4 4 4 4 4 5 4 4 4 4 4 5 4 5 5 5 5 6 5
5 5 5 6 6 5 4 3 4 3 3 3 4 3 3 2 2 1 1 1 1 2 2 2 2 3 4 3 4 5 5 4 3 2 2 3 3 4 5 5 5 3 4 4 5 5 3 4 5 5 4 5 3 4 3 3 4 3 3 3 4 5
5 6 5 5 4 4 4 4 4 3 2 3 3 3 2 2 0 0 1 1 2 2 3 3 3 3 2 3 4 5 6 6 5 3 2 3 4 4 5 6 5 4 5 5 6 4 4 4 4 3 3 3 1 2 3 3 3 4 5 5 3 3
5 4 4 4 4 4 3 4 4 3 2 2 2 2 1 1 0 1 1 2 2 3 3 3 2 3 4 2 4 5 5 5 5 4 3 3 3 3 4 6 5 6 6 5 5 5 5 4 3 2 2 1 1 2 3 4 5 6 6 4 5 5
3 3 3 3 3 4 4 4 3 3 2 2 1 1 2 2 2 2 2 3 4 3 3 3 3 3 4 3 4 6 5 5 5 4 5 4 4 5 4 5 6 6 6 6 5 6 4 4 2 0 2 2 0 2 3 4 5 6 5 5 5 5
4 3 3 3 3 3 4 4 4 3 2 2 1 1 1 0 1 2 3 3 3 2 2 3 5 4 4 4 4 5 5 5 5 6 6 6 5 4 5 6 5 6 6 6 5 6 4 3 3 3 4 3 3 4 4 4 5 5 4 6 7 6
4 4 3 3 3 4 4 4 3 3 2 1 1 1 1 1 3 3 3 4 3 3 3 4 4 4 4 4 4 5 5 4 4 4 5 4 6 5 5 5 5 4 6 6 6 6 6 3 4 5 4 4 5 5 5 5 5 5 6 6 7 7
5 5 4 4 4 5 5 4 4 2 1 0 1 1 2 3 4 3 4 4 4 4 4 4 4 4 4 4 4 4 4 4 4 5 5 5 5 6 6 5 5 5 5 6 6 6 6 5 5 5 6 6 6 6 6 6 6 6 7 8 8 8
5 5 4 4 4 4 4 3 2 1 2 2 3 3 3 4 3 3 3 4 4 4 4 4 4 4 4 4 4 4 4 4 4 5 6 6 6 6 7 7 6 5 5 5 6 6 5 5 6 7 7 5 5 5 7 6 8 8 7 7 7 5
5 5 5 5 4 4 3 2 1 0 3 3 2 2 3 3 2 3 3 4 4 4 4 4 4 3 4 4 4 4 4 5 5 6 6 6 6 7 7 7 6 6 7 7 6 6 6 5 5 4 5 7 6 5 7 7 9 8 8 6 5 6
5 5 5 5 4 3 2 4 3 3 3 3 3 2 2 1 2 2 3 4 4 3 3 3 2 2 2 3 3 4 5 6 6 6 7 7 7 6 7 7 6 7 6 7 5 5 5 4 4 5 4 4 6 4 6 7 8 8 8 7 8 8
5 5 4 4 5 3 2 2 4 3 4 1 0 1 1 3 1 1 2 3 3 2 2 2 2 3 4 4 4 5 5 5 6 6 7 7 7 7 6 7 7 6 7 5 7 6 7 8 6 5 6 4 3 3 4 5 7 9 9 9 7 8
5 4 5 5 5 4 3 1 1 2 1 3 1 1 2 2 2 2 2 1 2 2 2 3 3 3 3 4 4 4 5 4 5 6 7 7 7 7 7 6 7 8 7 7 5 6 7 9 7 3 3 5 3 3 4 7 8 8 9 10 10 11
4 5 3 3 3 3 4 4 3 3 4 2 1 3 2 2 2 2 2 3 2 0 0 1 1 2 2 3 4 4 4 5 5 5 5 6 7 7 7 7 7 7 7 7 7 6 6 8 10 9 6 1 1 3 5 1 6 7 6 8 11 11
4 4 5 3 4 4 4 4 3 3 2 2 2 3 5 3 5 4 4 2 4 4 3 4 4 4 2 2 3 3 3 4 5 5 5 5 5 6 7 8 7 6 7 8 7 8 8 7 10 11 11 9 7 6 1 1 3 5 2 8 7 9
4 5 4 3 3 6 5 5 5 5 4 4 2 1 1 0 3 4 3 5 4 5 5 5 5 4 4 4 4 5 5 5 5 5 5 6 5 6 7 7 6 7 8 8 8 9 8 7 7 8 9 11 10 9 6 4 6 1 5 3 7 8
5 5 3 3 5 4 6 5 6 5 5 4 3 2 3 3 2 2 5 6 5 6 5 5 6 7 7 7 7 6 6 5 6 6 6 6 6 6 7 7 7 8 8 8 7 8 10 8 7 5 7 9 8 9 9 9 8 6 5 3 4 5
6 6 4 5 6 6 6 6 5 4 5 3 3 3 1 2 4 5 6 6 7 7 8 8 8 8 8 8 9 8 8 8 8 8 7 7 7 7 9 9 9 7 8 8 7 8 8 8 8 9 8 7 9 7 7 8 8 7 8 8 7 6
6 5 5 7 8 8 8 6 6 6 6 5 5 5 5 6 5 4 6 6 7 8 8 8 8 8 8 9 8 8 8 9 9 8 7 7 8 8 8 8 8 8 9 9 7 8 9 8 8 8 8 8 7 7 5 5 8 9 7 8 9 7
5 5 6 7 9 8 7 6 6 6 7 7 6 6 7 7 6 7 7 7 7 7 8 8 8 8 6 8 7 8 8 8 7 7 7 7 7 7 7 8 8 9 9 10 8 9 8 9 8 8 8 7 9 7 8 10 10 10 9 7 7 8
6 6 6 6 9 8 7 6 6 6 7 6 6 5 6 6 6 7 7 8 7 7 8 7 7 7 8 8 8 8 8 7 7 7 7 7 7 7 7 7 7 7 6 7 7 8 8 8 8 7 8 7 7 7 7 6 3 5 8 9 8 9
7 6 6 6 8 7 7 7 6 7 6 5 6 6 5 5 6 7 8 8 8 7 7 7 7 7 7 9 8 8 8 7 7 7 8 8 8 8 7 7 7 7 7 7 7 8 8 7 8 8 8 7 7 8 8 7 6 6 7 8 9 10
7 5 5 6 6 8 8 6 6 6 6 5 6 5 5 6 6 6 6 6 6 6 6 6 7 8 8 8 7 8 7 7 7 7 8 8 8 8 8 8 8 8 8 7 7 8 8 8 8 9 8 8 8 8 8 7 7 7 8 7 7 9
6 5 6 6 7 8 7 7 6 6 6 5 5 5 5 5 5 5 4 5 6 5 6 6 6 7 7 7 8 7 7 7 8 8 9 9 8 8 8 7 6 7 7 6 6 7 7 8 8 8 8 8 8 8 8 7 7 9 9 10 10 9
6 6 7 8 8 7 6 6 7 7 6 5 5 5 6 5 5 4 5 5 6 6 6 7 5 6 7 7 8 9 8 9 9 9 9 9 9 9 10 9 7 7 8 6 7 7 6 7 8 8 9 8 8 8 7 8 8 8 8 8 9 8
7 7 8 7 6 5 6 8 7 7 7 8 8 7 6 7 6 6 5 5 6 6 6 6 6 7 7 8 8 7 8 8 9 8 9 9 9 9 10 9 8 8 8 7 6 7 6 6 7 8 8 9 9 8 8 7 8 8 8 8 8 8
Wind_Direction
120 115 108 97 91 108 138 136 135 137 136 133 121 114 116 116 107 114 101 88 84 73 63 58 64 59 97 113 137 125 121 117 112 103 72 24 37 29 33 37 36 32 30 38 53 51 52 73 82 98 140 142 137 117 136 127 131 134 136 141 140 207
117 114 104 95 99 102 112 106 101 117 133 137 130 126 111 104 95 75 87 83 76 88 72 64 37 61 60 64 41 124 112 120 118 99 62 30 7 11 10 21 24 27 31 33 55 53 32 39 86 120 148 143 119 140 133 137 138 146 148 155 162 186
121 112 102 100 100 90 95 92 89 112 127 137 132 113 104 101 93 99 98 92 90 75 87 75 61 254 191 190 45 331 290 10 126 85 27 353 351 349 358 358 3 17 30 31 63 67 58 34 48 82 153 128 136 133 136 145 152 159 168 180 165 189
123 108 105 103 99 103 100 104 114 103 100 96 99 110 112 116 104 106 113 103 77 96 74 60 309 315 4 45 31 358 326 322 340 358 355 26 9 3 355 355 356 360 11 9 52 76 85 43 62 94 121 143 150 152 154 163 166 173 179 193 190 207
115 105 106 115 117 103 111 115 115 113 106 92 102 98 102 101 106 102 104 101 65 80 15 27 350 330 349 14 17 354 329 346 4 1 3 349 6 2 354 346 345 358 350 350 360 94 111 102 16 98 145 162 165 164 165 167 174 177 199 216 212 221
117 113 121 113 120 129 132 127 115 133 111 105 111 113 104 104 100 100 94 94 102 46 24 352 52 23 330 333 275 244 266 293 341 280 290 303 312 335 316 320 331 330 326 319 315 338 160 156 168 158 153 172 180 178 174 174 178 186 197 216 230 232
131 123 123 124 116 122 142 126 117 127 125 131 134 129 139 101 106 112 115 148 129 138 346 348 353 345 9 188 245 243 243 234 245 258 255 250 291 283 269 285 286 273 282 296 299 284 172 181 183 186 179 182 185 187 182 182 186 189 195 205 228 241
133 133 130 136 128 152 140 141 151 165 150 169 152 153 145 130 135 159 177 184 151 164 203 340 324 330 308 337 277 277 230 232 239 252 260 246 283 289 292 280 267 256 256 261 276 286 224 170 182 193 198 197 193 190 194 193 193 194 193 200 211 240
138 135 123 137 151 161 131 134 179 150 154 191 132 142 133 124 138 176 191 187 164 179 185 201 242 238 218 274 297 294 291 271 243 255 205 257 244 277 289 284 281 286 271 268 264 280 286 241 167 187 194 205 203 197 197 200 203 198 197 195 209 225
132 130 134 148 157 163 143 153 174 171 164 176 123 118 132 135 139 159 175 177 182 176 201 218 245 272 206 283 280 285 276 276 293 289 216 267 246 253 276 291 291 291 294 288 290 283 300 305 300 176 180 199 201 202 197 198 201 200 194 195 208 221
135 146 145 155 159 157 164 175 169 152 147 125 131 127 125 152 160 178 188 181 184 220 212 228 261 304 322 305 294 274 265 279 283 273 215 276 329 312 302 285 311 318 316 312 299 310 301 292 294 301 235 199 215 202 205 204 202 195 194 200 194 205
138 145 151 149 154 163 174 168 147 127 151 148 143 152 165 165 202 193 192 177 198 242 260 270 249 317 296 292 291 278 258 256 254 275 285 258 274 281 271 275 282 308 298 301 294 293 282 267 278 276 284 260 226 207 205 190 193 195 200 201 197 200
141 149 152 159 170 170 152 137 119 123 151 149 153 155 168 177 174 173 152 140 193 218 231 242 253 244 271 269 286 292 285 266 257 235 229 273 272 266 274 277 272 239 258 280 292 287 272 256 267 274 273 263 232 223 201 177 186 185 199 215 211 196
149 151 162 166 157 146 131 118 116 131 141 139 158 156 173 159 167 117 156 210 225 235 244 244 256 278 268 288 292 293 299 300 306 316 255 239 246 241 260 279 271 281 274 267 268 274 285 269 251 265 296 322 191 196 165 179 161 167 172 190 194 234
152 152 160 158 145 133 125 128 129 133 144 162 164 167 151 120 99 303 249 257 235 239 256 286 307 291 288 267 292 296 295 296 308 315 306 287 264 252 225 246 274 273 275 266 261 270 260 245 223 280 302 318 201 180 176 166 158 178 194 189 186 188
142 151 143 140 122 125 130 123 124 142 134 160 168 189 184 172 178 204 226 246 244 245 262 263 251 242 261 269 285 292 296 308 316 319 313 302 281 271 256 242 246 242 263 264 258 261 235 220 144 320 261 270 45 208 209 178 188 196 188 197 214 213
146 141 120 110 112 106 107 108 116 126 146 159 182 246 274 84 236 235 231 240 251 261 247 237 236 236 246 271 276 282 289 298 305 304 302 301 294 274 262 256 244 235 233 262 266 265 243 175 125 233 230 209 201 200 208 206 199 204 184 208 219 210
114 119 115 118 120 111 102 102 98 101 134 150 210 279 50 229 251 249 244 254 252 241 230 219 219 213 230 250 259 262 278 280 279 280 276 279 289 287 261 252 256 233 230 237 253 254 259 230 193 225 244 228 236 225 215 206 198 201 192 211 225 219
123 118 117 122 116 107 102 89 74 87 88 192 296 204 209 231 246 251 251 254 251 238 234 222 217 211 230 242 251 256 263 265 258 256 256 254 275 280 269 243 248 249 229 226 232 238 249 253 248 249 249 242 228 227 227 219 207 205 203 209 215 224
133 132 131 119 114 107 97 98 120 13 1 289 262 245 226 234 229 238 249 247 237 231 226 225 218 216 223 236 243 252 257 262 260 260 261 256 257 256 261 260 246 246 250 243 236 241 237 243 263 274 274 263 238 234 237 228 222 218 218 212 213 215
141 145 140 137 129 134 123 101 73 203 237 240 236 230 254 265 246 241 243 241 240 236 225 226 221 212 218 235 238 243 244 246 244 249 247 247 247 251 250 248 247 235 242 247 239 223 236 222 225 237 236 261 261 240 241 235 228 224 219 218 205 210
144 157 163 160 145 132 149 169 165 196 190 218 212 226 299 330 240 257 244 245 249 251 240 234 246 210 238 227 248 254 254 257 250 247 248 251 251 247 245 242 243 253 225 244 247 199 216 191 236 228 225 240 243 243 242 237 234 232 226 216 211 211
161 158 160 152 147 158 176 177 158 195 166 242 246 178 195 251 307 288 276 259 267 280 267 266 253 241 235 237 238 245 245 246 254 258 263 260 256 253 243 241 233 243 260 223 234 200 189 180 232 215 234 251 239 230 231 237 238 237 228 222 212 214
162 160 163 179 174 171 163 149 53 52 41 68 339 342 16 353 15 8 347 322 299 273 240 236 229 230 234 236 232 240 248 248 253 252 258 267 266 262 247 245 241 238 233 252 233 226 194 195 205 147 261 214 230 189 254 230 226 231 221 227 219 218
167 163 160 148 123 114 96 73 47 38 37 29 359 8 29 7 23 357 43 15 23 141 254 274 233 220 238 255 244 237 238 248 250 251 253 266 278 278 281 267 253 243 234 243 248 242 221 206 209 199 212 215 280 241 235 171 197 250 202 224 224 217
83 84 101 110 132 119 112 118 102 99 62 28 360 9 23 353 340 5 358 311 356 28 21 11 9 0 333 310 306 297 289 290 284 277 264 265 272 280 282 284 274 268 260 244 246 253 261 224 217 211 219 219 207 236 227 255 130 269 177 227 229 218
86 90 100 109 119 116 102 105 110 110 113 105 91 304 267 318 15 348 343 19 3 6 28 24 11 9 3 356 351 343 332 314 295 286 277 271 261 271 278 276 271 264 268 263 252 245 246 249 237 231 226 225 225 224 194 184 224 282 273 220 224 218
78 80 76 109 85 90 110 111 98 93 94 96 105 82 13 8 22 3 23 16 6 12 11 20 11 9 8 4 358 353 339 318 315 308 303 292 286 279 273 271 268 269 272 272 267 258 257 255 238 250 211 227 231 232 223 225 227 216 244 259 232 224
77 79 71 76 81 70 77 78 84 95 84 65 74 52 9 46 36 18 30 9 12 2 8 8 14 9 5 0 356 346 340 339 337 333 326 316 301 285 274 273 273 270 273 273 260 263 267 269 266 256 248 213 223 230 225 207 216 219 236 241 240 203
77 81 86 74 75 67 64 67 68 64 67 43 30 25 36 27 17 15 30 15 11 10 4 4 4 4 358 357 345 344 342 343 346 337 330 314 301 293 287 281 275 269 265 261 257 259 261 269 272 276 270 271 239 220 226 207 209 215 226 226 245 225
81 77 70 73 74 69 64 58 67 62 61 49 34 35 25 16 9 21 21 14 16 7 9 360 355 351 357 346 344 346 347 345 330 315 296 293 289 285 286 283 277 272 270 267 260 260 258 261 267 273 273 276 276 255 225 216 210 204 205 208 220 239
75 71 68 69 70 64 62 55 53 52 53 48 47 41 34 21 15 28 21 22 14 8 6 358 351 353 354 346 348 344 341 325 313 304 304 297 294 292 290 288 287 283 282 277 277 274 266 258 264 268 269 267 273 279 282 267 276 221 218 225 214 233
83 72 68 68 73 71 66 57 49 50 46 42 44 41 35 33 27 35 27 24 15 11 358 0 350 350 345 349 341 335 336 330 326 318 315 312 309 303 296 290 290 291 286 280 274 270 263 265 267 268 276 266 261 264 267 253 224 234 239 235 220 236
85 77 84 77 76 71 62 57 53 53 46 41 43 43 39 43 40 46 36 28 18 4 346 349 346 343 341 341 340 334 328 328 319 317 320 319 319 317 309 303 296 295 295 291 283 274 270 266 260 258 254 255 251 248 252 248 240 231 228 225 231 230
81 71 71 67 66 65 60 52 52 52 46 45 48 48 51 51 45 41 37 32 6 350 346 333 355 340 341 342 340 335 333 327 328 330 329 329 327 325 319 309 303 295 291 282 280 261 260 265 266 261 253 248 253 248 241 236 229 230 226 227 229 225
88 76 69 65 60 66 65 61 54 49 39 48 50 51 46 37 28 31 32 25 8 356 351 343 346 352 353 347 344 339 341 343 341 340 337 333 332 338 338 333 326 326 324 320 315 306 295 291 290 279 270 260 252 249 243 238 230 228 228 228 226 221
77 68 64 64 67 70 70 62 50 46 42 42 36 34 34 32 22 24 22 25 20 359 354 359 359 1 354 347 346 342 342 343 344 341 340 339 339 341 339 336 336 336 337 328 323 317 307 306 303 296 293 275 261 258 252 244 238 233 233 226 227 225